Weather in Zhuravinka

Russia / Ryazan Oblast     53°38′22″N   39°56′45″E
temp.,
°C
wind,
m/s
gust,
m/s
humid.,
%
clouds,
%
prec.,
mm/h
press.,
hPa
HPBL,
m
4 march, thu
thu400:00−1w61193100 0.1 1012688
03:00−2wsw6129099 0.1 1009439
06:000wsw81391100 0.0 1006591
09:00−1wsw81589100 0.1 1005534
12:00+1wsw81487100 0.0 1003834
15:000wsw71289100 0.0 1002908
18:000wsw51191100 0.1 1001607
21:00−2w51196100 0.3 1001468
5 march, fri
fri500:00−2w4997100 0.7 1001413
03:00−4nne3697100 1.4 1002230
06:00−5nw3696100 0.3 1004139
09:00−7nnw379383 0.3 1007206
12:00−4nw35880 0.0 1009401
15:00−3wnw35865 0.0 1011579
18:00−6w349156 0.0 101234
21:00−8w239256 0.0 101522
6 march, sat
sat600:00−10wnw229055 0.0 101621
03:00−12wnw119152 0.0 101621
06:00−13nne01920 0.0 101621
09:00−10ese119115 0.0 101641
12:00−6sse228899 0.0 1015256
15:00−5ssw1188100 0.0 1015339
18:00−8sw1295100 0.1 101521
21:00−10w229683 0.1 101621
7 march, sun
sun700:00−9nnw369599 0.3 1017171
03:00−14wsw349051 0.3 101660
06:00−13sw511910 0.0 1014209
09:00−8sw8168349 0.0 1011576
12:00−4sw101778100 0.0 10061050
15:00−4sw111993100 0.9 10021295
18:00−2wsw101893100 1.2 10001155
21:00−7wnw51177100 2.2 1002303
8 march, mon
mon800:00−11sw467633 0.0 100384
03:00−10sw5128817 0.0 1002208
06:00−8ssw5129354 0.0 999282
09:00−5sw8148968 0.0 998977
12:00−7wnw9147996 0.4 10001292
15:00−7wnw10157998 0.5 10051646
18:00−9wnw6138293 0.1 1008495
21:00−12w488756 0.1 1011128